This demonstration page uses our WeatherBlox Daily Observations layout. Learn more.

Left ArrowRight Arrow

Hourly Observations for March 15, 2019

Temp ( °F °C ) Dew Point ( °F °C ) Humidity (%) Winds ( mph kmh ) Pressure ( in mb ) Visibility ( mi km ) Precip ( " mm )
12:51 am 00:51 Clear 40 4.4 30 -1.1 68 68 SE 6 9 30.11 1020 10 16 N/A
1:51 am 01:51 Clear 41 5 30 -1.1 65 65 SE 10 17 30.11 1020 10 16 N/A
2:51 am 02:51 Clear 39 3.9 28 -2.2 65 65 SSE 9 15 30.11 1020 10 16 N/A
3:51 am 03:51 Clear 41 5 28 -2.2 60 60 SE 12 19 30.09 1019 10 16 N/A
4:51 am 04:51 Clear 41 5 27 -2.8 57 57 SE 10 17 30.10 1019 10 16 N/A
5:51 am 05:51 Clear 39 3.9 27 -2.8 62 62 ESE 9 15 30.13 1020 10 16 N/A
6:51 am 06:51 Sunny 39 3.9 26 -3.3 60 60 SE 8 13 30.15 1021 10 16 N/A
7:51 am 07:51 Sunny 46 7.8 26 -3.3 46 46 ESE 9 15 30.17 1022 10 16 N/A
8:51 am 08:51 Sunny 49 9.4 26 -3.3 41 41 SE 12 19 30.18 1022 10 16 N/A
9:51 am 09:51 Sunny 52 11.1 27 -2.8 38 38 ESE 7 11 30.16 1022 10 16 N/A
10:51 am 10:51 Sunny 58 14.4 25 -3.9 28 28 SE 18 30 30.14 1021 10 16 N/A
11:51 am 11:51 Sunny 59 15 24 -4.4 26 26 SSE 22 35 30.12 1020 10 16 N/A
12:51 pm 12:51 Sunny 59 15 24 -4.4 26 26 SE 16 26 30.09 1019 10 16 N/A
1:51 pm 13:51 Sunny 62 16.7 22 -5.6 21 21 SE 15 24 30.04 1017 10 16 N/A
2:51 pm 14:51 Sunny 61 16.1 23 -5 23 23 SE 16 26 30.05 1018 10 16 N/A
3:51 pm 15:51 Sunny 62 16.7 24 -4.4 23 23 SE 15 24 30.02 1017 10 16 N/A
4:51 pm 16:51 Sunny 62 16.7 25 -3.9 24 24 SE 13 20 30.01 1016 10 16 N/A
5:51 pm 17:51 Sunny 60 15.6 25 -3.9 26 26 SE 18 30 30.02 1017 10 16 N/A
6:51 pm 18:51 Clear 58 14.4 25 -3.9 28 28 ESE 14 22 30.04 1017 10 16 N/A
7:51 pm 19:51 Clear 55 12.8 26 -3.3 33 33 ESE 10 17 30.05 1018 10 16 N/A
8:51 pm 20:51 Clear 53 11.7 27 -2.8 37 37 E 10 17 30.07 1018 10 16 N/A
9:51 pm 21:51 Clear 52 11.1 27 -2.8 38 38 SE 5 7 30.09 1019 10 16 N/A
10:51 pm 22:51 Clear 51 10.6 27 -2.8 39 39 SE 9 15 30.08 1019 10 16 N/A
11:51 pm 23:51 Clear 51 10.6 27 -2.8 39 39 SSE 9 15 30.08 1019 10 16 N/A

Powered by AerisWeather